Location: Bartshausen
(51.8454°N, 9.8167°E)
Time: 02:50:23
(UTC+00:00)

Cosmos 1400 Rocket - Visible Passes

Search period start: 19 February 2026 00:00
Search period end: 01 March 2026 00:00
Orbit: 476 x 509 km, 81.1° (Epoch: 18 February)

Date Brightness Start Highest point End Pass type
(mag) Time Alt. Az. Time Alt. Az. Time Alt. Az.
19 Feb 3.7 04:00:28 18° SSE 04:02:57 46° E 04:06:38 10° NNE visible
19 Feb 4.1 05:35:49 10° WSW 05:38:36 19° WNW 05:41:23 10° NNW visible
20 Feb 4.3 03:39:17 25° SE 03:40:38 33° E 03:44:06 10° NNE visible
20 Feb 3.7 05:13:52 15° WSW 05:16:05 25° WNW 05:19:18 10° N visible
21 Feb 4.8 03:17:50 24° ESE 03:18:20 24° E 03:21:27 10° NE visible
21 Feb 3.3 04:52:25 27° WSW 04:53:35 33° WNW 04:57:05 10° N visible
22 Feb 5.3 02:56:14 18° E 02:56:14 18° E 02:58:41 10° NE visible
22 Feb 2.9 04:30:47 44° W 04:31:07 45° WNW 04:34:48 10° N visible
23 Feb 5.8 02:34:30 13° ENE 02:34:30 13° ENE 02:35:39 10° ENE visible
23 Feb 2.7 04:09:03 59° NW 04:09:03 59° NW 04:12:27 10° N visible
24 Feb 3.3 03:47:13 48° NNE 03:47:13 48° NNE 03:50:02 10° NNE visible
24 Feb 4.7 05:21:46 11° WNW 05:22:14 11° WNW 05:23:30 10° NW visible
25 Feb 4.2 03:25:19 33° NNE 03:25:19 33° NNE 03:27:34 10° NNE visible
25 Feb 4.5 04:59:51 15° WNW 04:59:51 15° WNW 05:01:51 10° NNW visible
26 Feb 4.9 03:03:20 24° NE 03:03:20 24° NE 03:05:02 10° NNE visible
26 Feb 4.4 04:37:52 18° NW 04:37:52 18° NW 04:39:50 10° NNW visible
27 Feb 5.4 02:41:19 17° NE 02:41:19 17° NE 02:42:26 10° NNE visible
27 Feb 4.3 04:15:51 20° NNW 04:15:51 20° NNW 04:17:39 10° N visible
28 Feb 5.9 02:19:14 12° NE 02:19:14 12° NE 02:19:42 10° NE visible
28 Feb 4.4 03:53:46 21° NNW 03:53:46 21° NNW 03:55:22 10° N visible
